Location: Peterborough
(44.3091°N, 78.3197°W)
Time: 04:47:59
(UTC-04:00)

Vanguard 3 - Pass Details

Date: 24 February 2024
Orbit: 510 x 3236 km, 33.3° (Epoch: 12 April)

Event Time Altitude Azimuth Distance (km) Brightness Sun altitude
Rises 03:40:08 0° 276° (W) 6,327 - -35.8°
Reaches altitude 10° 03:46:37 10° 261° (W) 4,760 - -34.7°
Maximum altitude 03:53:50 18° 227° (SW) 3,442 - -33.5°
Drops below altitude 10° 03:59:16 10° 189° (S) 3,392 - -32.6°
Exits shadow 04:02:34 - 170° (S) 3,889 10.6 -32.1°
Sets 04:02:48 0° 169° (S) 3,936 10.6 -32.0°
